Showing default

GAOFEN 9, 40894

Orbit data source: Space-Track

GAOFEN 9, 40894 is a payload satellite owned by GGKGJ (CN) in SSO that was launched on Mon, 14 Sep 2015 UTC via a CHANG ZHENG 2D launch vehicle from the Jiuquan Satellite Launch Center, China (JSC). Payload-class satellites include a variety of spacecraft equipped with specific instruments for various scientific and technological missions. These include communications satellites like Starlink; space stations such as the ISS; scientific satellites like the Hubble; Earth observation satellites from companies like Planet Labs, Umbra, and HawkEye 360; GPS; miniature CubeSats for education and research; and military/defense satellites.

Loading next visibility...
Identifier
40894, 2015-047A
Orbit
SSO
Country
Flag of CNCN / PRC
Related business
Manufacturer
DFH
Mission
Operational Defense Imaging
Bus & Motor
CAST-3000, AOCS
Mass
~1,700 kg wet, ~1,200 kg dry
Launch date (UTC)
2015-09-14 (10 years ago)
Launch vehicle
CHANG ZHENG 2D
Launch site
Jiuquan Satellite Launch Center, China (JSC)
Object type
Payload
Rocket body
Debris
Shape & HBR
Box + 2 Pan, 2.0 m
Radar Cross Section
4.991 m², Large (>1 m²)

Expand to show TLE details & history
Last TLE update: 10 hours ago

TLE from 10 hours ago
0 GAOFEN 9
1 40894U 15047A   25352.94096164  .00000888  00000-0  11639-3 0  9995
2 40894  97.6535  31.6285 0027904  14.4223 345.7781 14.82437201553487
Epoch: 2025-12-18T22:34Z
TLE epoch observation values (Epoch: 2025-12-18T22:34:59.085Z)
Latitude
-0.00005°
Longitude
-34.90693°
Altitude
605.739 km
Speed
7.567 km/s
True Right ascension
02h 06m 30s
True Declination
0° 00' 00"
Sunlit
Object was in full shadow at epoch
Visualization orbit readout
Latitude
Unknown
Longitude
Unknown
Altitude
Unknown
Speed
Unknown
Apparent Right ascension
Unknown
Apparent Declination
Unknown
Sunlit
N/A
Visualization observer readout
Local Sidereal Time
07:31:51
Azimuth
Unknown
Elevation
Unknown
Doppler factor
Unknown
Orbital elements
Apogee altitude
638.192 km
Perigee altitude
599.144 km
Semi-major axis
6,996.805 km
Eccentricity
0.00279
Inclination
97.6535°
RAAN
31.6285°
Arg. of periapsis
14.4223°
True anomaly
345.69928°
Mean anomaly
345.7781°
Eccentric anomaly
345.73871°
Mean motion
3.70846 °/min
Orbital period
97.08 mins
BSTAR
0.00011639
Loading maneuver chart data...
Computing Atmospheric mass density...
Loading historical data...
Loading historical data...
Loading historical data...
Loading historical data...
Loading historical data...
Loading historical data...
Loading historical data...
Other satellites on launch #47 in the year 2015 (2015-09-14 UTC)

Documentation

Showing up to 5 results
|